Location: Ash Swamp
(41.5170°N, 74.6157°W)
Time: 02:37:06
(UTC+00:00)

BREEZE-M DEB (TANK) - Pass Details

Date: 14 July 2020
Orbit: 310 x 15749 km, 49.4° (Epoch: 13 August)

Event Time Altitude Azimuth Distance (km) Brightness Sun altitude
Rises 03:23:44 0° 301° (WNW) 4,734 8.0 -22.7°
Reaches altitude 10° 03:28:18 10° 294° (WNW) 2,533 6.3 -23.1°
Enters shadow 03:31:53 30° 258° (WSW) 916 3.5 -23.3°
